Tracking 25703 objects as of 3-Jul-2022
HD Live streaming from Space Station
objects crossing your sky now

STARLINK-2575

Track STARLINK-2575 now!
10-day predictions
STARLINK-2575 is classified as:


NORAD ID: 48396
Int'l Code: 2021-038AV
Perigee: 553.3 km
Apogee: 555.4 km
Inclination: 53.1 °
Period: 95.6 minutes
Semi major axis: 6925 km
RCS: Unknown
Launch date: May 4, 2021
Source: United States (US)
Launch site: AIR FORCE EASTERN TEST RANGE (AFETR)
aabbcc
Your satellite tracking list
Your tracking list is empty




NASA's NSSDC Master Catalog

Two Line Element Set (TLE):
1 48396U 21038AV  22183.64644425  .00001840  00000-0  14240-3 0  9992
2 48396  53.0555 264.2566 0001480  63.8802 296.2339 15.06403692 65018
Source of the keplerian elements: AFSPC